"Pseudo-MPEC" for P12gf6T

Created 2025 Oct 7 18:35:12 UT using Find_Orb

Click here for an explanation of pseudo-MPECs

 
 Astrometry: 
     P12gf6T* C2025 10 02.49764702 16 01.061+05 24 29.80   ~A2EZ 21.83wXNEOCPF51
     P12gf6T  C2025 10 02.51131002 16 06.039+05 24 30.99   ~A2EZ 21.62wXNEOCPF51
     P12gf6T  C2025 10 02.52483302 16 10.947+05 24 31.38   ~A2EZ 21.53wXNEOCPF51
     P12gf6T  C2025 10 02.53830402 16 15.961+05 24 32.47   ~A2IZ 21.76GVNEOCPF51

Station data:
(F51) Pan-STARRS 1, Haleakala  (N20.707234 W156.255910)  US/Hawaii.
   Observers J. Herman, T. Lowe, P. Minguez, A. Schultz, I. Smith. Measurers
   K. Chambers, T. de Boer, J. Fairlamb, H. Gao, M. Huber, C.-C. Lin, E.
   Magnier, Y. Ramanjooloo, R. Wainscoat, R. Weryk. 1.8-m Ritchey-Chrétien +
   CCD.

Orbital elements:  P12gf6T
   Perihelion 2025 Dec 9.584234 +/- 26.7 TT = 14:01:17.8 (JD 2461019.084234)
Epoch 2025 Oct  3.0 TT = JDT 2460951.5   Earth MOID: 0.0072   Ve: 0.0412
M 310.421357115 +/- 23              Ma: 0.0125                   AutoNEOCP
n   0.733582966 +/- 0.252           Peri.   44.500545 +/- 100
a   1.217596030 +/- 0.279           Node    58.823511 +/- 70
e   0.37718947 +/- 0.191            Incl.    0.666326 +/- 1.7
P   1.344/490.733d         H 26.24  G  0.15   U 11.8  SR
q 0.758331618 +/- 0.253    Q 1.676860443 +/- 0.846        (J2000 ecliptic)
From 4 observations 2025 Oct. 2 (58.5 min); mean residual 0".27
Residuals in arcseconds: 
251002 F51  .15+  .05-    251002 F51  .57-  .24-    
251002 F51  .06+  .20+    251002 F51  .36+  .10+    

Ephemerides (geocentric):
Date (UTC) HH   RA             Dec           delta  r     elong  mag " sig PA
---- --------  ------------   ------------  ------ ------ -----  --- --------
2025 10 07 19  03 22 43.414   +05 23 34.11  .03715 1.0291 142.8 20.6  62d  86
2025 10 07 20  03 23 39.987   +05 23 21.16  .03693 1.0289 142.6 20.6  62d  86
2025 10 07 21  03 24 37.228   +05 23 07.73  .03671 1.0286 142.4 20.6  62d  86
2025 10 07 22  03 25 35.145   +05 22 53.81  .03649 1.0283 142.2 20.6  62d  86
2025 10 07 23  03 26 33.750   +05 22 39.37  .03627 1.0281 142.0 20.6  62d  86
2025 10 08 00  03 27 33.052   +05 22 24.41  .03605 1.0278 141.8 20.6  62d  86
2025 10 08 01  03 28 33.062   +05 22 08.90  .03584 1.0275 141.5 20.6  63d  86
2025 10 08 02  03 29 33.791   +05 21 52.83  .03562 1.0273 141.3 20.6  63d  86
2025 10 08 03  03 30 35.249   +05 21 36.20  .03541 1.0270 141.1 20.6  63d  86
2025 10 08 04  03 31 37.447   +05 21 18.97  .03519 1.0267 140.9 20.6  63d  86
2025 10 08 05  03 32 40.397   +05 21 01.14  .03498 1.0265 140.7 20.5  63d  86
2025 10 08 06  03 33 44.109   +05 20 42.68  .03477 1.0262 140.4 20.5  63d  86
2025 10 08 07  03 34 48.594   +05 20 23.58  .03455 1.0259 140.2 20.5  63d  86
2025 10 08 08  03 35 53.865   +05 20 03.82  .03434 1.0257 140.0 20.5  63d  86
2025 10 08 09  03 36 59.933   +05 19 43.38  .03413 1.0254 139.7 20.5  63d  86
2025 10 08 10  03 38 06.809   +05 19 22.24  .03392 1.0252 139.5 20.5  63d  86
2025 10 08 11  03 39 14.505   +05 19 00.39  .03371 1.0249 139.3 20.5  63d  86
2025 10 08 12  03 40 23.034   +05 18 37.79  .03350 1.0246 139.0 20.5  63d  86
2025 10 08 13  03 41 32.408   +05 18 14.44  .03330 1.0244 138.8 20.5  63d  86
2025 10 08 14  03 42 42.638   +05 17 50.31  .03309 1.0241 138.5 20.5  63d  86
2025 10 08 15  03 43 53.738   +05 17 25.37  .03288 1.0238 138.3 20.5  63d  86
2025 10 08 16  03 45 05.720   +05 16 59.61  .03268 1.0236 138.0 20.5  63d  86
2025 10 08 17  03 46 18.597   +05 16 33.00  .03247 1.0233 137.7 20.5  63d  86
2025 10 08 18  03 47 32.380   +05 16 05.52  .03227 1.0230 137.5 20.5  63d  86
2025 10 08 19  03 48 47.084   +05 15 37.14  .03207 1.0228 137.2 20.4  63d  86
2025 10 08 20  03 50 02.722   +05 15 07.83  .03187 1.0225 136.9 20.4  63d  86
2025 10 08 21  03 51 19.306   +05 14 37.59  .03167 1.0222 136.6 20.4  63d  86
2025 10 08 22  03 52 36.850   +05 14 06.36  .03147 1.0220 136.4 20.4  63d  86
2025 10 08 23  03 53 55.367   +05 13 34.14  .03127 1.0217 136.1 20.4  64d  86
2025 10 09 00  03 55 14.870   +05 13 00.89  .03107 1.0215 135.8 20.4  64d  86
2025 10 09 01  03 56 35.373   +05 12 26.59  .03088 1.0212 135.5 20.4  64d  86
2025 10 09 02  03 57 56.890   +05 11 51.20  .03068 1.0209 135.2 20.4  64d  86
2025 10 09 03  03 59 19.434   +05 11 14.69  .03049 1.0207 134.9 20.4  64d  86
2025 10 09 04  04 00 43.020   +05 10 37.04  .03030 1.0204 134.6 20.4  64d  86
2025 10 09 05  04 02 07.659   +05 09 58.22  .03010 1.0201 134.3 20.4  64d  86
2025 10 09 06  04 03 33.368   +05 09 18.19  .02991 1.0199 133.9 20.4  64d  86
2025 10 09 07  04 05 00.158   +05 08 36.92  .02972 1.0196 133.6 20.4  64d  86
2025 10 09 08  04 06 28.045   +05 07 54.38  .02954 1.0193 133.3 20.4  64d  86
2025 10 09 09  04 07 57.042   +05 07 10.53  .02935 1.0191 133.0 20.4  64d  86
2025 10 09 10  04 09 27.162   +05 06 25.35  .02916 1.0188 132.6 20.4  64d  86
2025 10 09 11  04 10 58.420   +05 05 38.79  .02898 1.0185 132.3 20.4  64d  86
2025 10 09 12  04 12 30.829   +05 04 50.82  .02880 1.0183 131.9 20.3  64d  86
2025 10 09 13  04 14 04.403   +05 04 01.41  .02861 1.0180 131.6 20.3  64d  86
2025 10 09 14  04 15 39.155   +05 03 10.51  .02843 1.0178 131.2 20.3  64d  86
2025 10 09 15  04 17 15.099   +05 02 18.09  .02825 1.0175 130.9 20.3  64d  86
2025 10 09 16  04 18 52.249   +05 01 24.12  .02808 1.0172 130.5 20.3  64d  86
2025 10 09 17  04 20 30.617   +05 00 28.55  .02790 1.0170 130.1 20.3  64d  86
2025 10 09 18  04 22 10.217   +04 59 31.34  .02773 1.0167 129.8 20.3  64d  86